{"data":{"norad_id":65183,"epoch":"2026-09-20T20:49:22.056096Z","epoch_age_seconds":89085,"freshness":"FRESH","line1":"1 65183U 25175K   26263.86761639  .00003560  00000+0  11257-3 0  9990","line2":"2 65183  97.2859 132.9100 0002144 109.6034 250.5441 15.33434480 62166","mean_motion":15.3343448,"eccentricity":0.0002144,"inclination_deg":97.2859,"raan_deg":132.91,"arg_perigee_deg":109.6034,"mean_anomaly_deg":250.5441,"bstar":0.00011257,"rev_number":6216,"period_min":93.906848892559,"perigee_km":464.10718303543,"apogee_km":467.04176651582,"semimajor_km":6843.7114747756,"source":"CELESTRAK","updated_at":"2026-09-21T09:00:35.529182Z"}}